Weather in Verkhnesyuryubayevo

Russia / Republic of Bashkortostan     52°26′27″N   56°30′34″E
temp.,
°C
wind,
m/s
gust,
m/s
humid.,
%
clouds,
%
prec.,
mm/h
press.,
hPa
HPBL,
m
29 july, thu
thu2923:00+13n34510 0.0 101444
02:00+10ne22610 0.0 101411
05:00+9ene11690 0.0 101510
08:00+15ese11471 0.0 1015175
11:00+21w22315 0.0 10141643
14:00+24w45221 0.0 10132161
17:00+26wnw45203 0.0 10122531
20:00+23wnw2228100 0.0 101111
30 july, fri
fri3023:00+16ne113898 0.0 101211
02:00+18s2333100 0.0 101244
05:00+17ssw3643100 0.1 1012151
08:00+17ssw3951100 0.3 1012242
11:00+20s71439100 0.3 1010598
14:00+30sw91423100 0.0 10082569
17:00+30wsw61127100 0.0 10062908
20:00+26wnw484187 0.2 1007274
31 july, sat
sat3123:00+21wsw225760 0.2 100811
02:00+18ne116938 0.0 101011
05:00+17se117685 0.0 101011
08:00+22sse22565 0.0 1011189
11:00+29wsw563655 0.0 10101828
14:00+33wsw592796 0.0 10083298
17:00+33w792571 0.3 10082779
20:00+21nw4106952 0.8 1011233
1 august, sun
sun123:00+18se11785 0.8 101111
02:00+19sse337280 0.0 101022
05:00+19wnw117341 0.0 101011
08:00+22w246229 0.0 1011279
11:00+27nw57460 0.0 10111472
14:00+30wnw78290 0.0 10112559
17:00+31wnw6724100 0.0 10112783
20:00+27wnw48335 0.0 1012342
2 august, mon
mon223:00+21nw334527 0.0 101319
02:00+18ene1155100 0.0 101411
05:00+17s115751 0.0 101411
08:00+23ssw224166 0.0 1015174
11:00+30w552814 0.0 10141400
14:00+33wnw55220 0.0 10132943
17:00+34nw45200 0.0 10123121
20:00+30nnw23252 0.0 101234